Tracking 27402 objects as of 3-Jun-2023
HD Live streaming from Space Station
objects crossing your sky now

THOR ABLESTAR DEB

Track THOR ABLESTAR DEB now!
10-day predictions


NORAD ID: 13502
Int'l Code: 1961-015KT
Perigee: 831.9 km
Apogee: 1,234.1 km
Inclination: 66.5 °
Period: 105.7 minutes
Semi major axis: 7403 km
RCS: 0.058 m2 (small)
Launch date: June 29, 1961
Source: United States (US)
Launch site: AIR FORCE EASTERN TEST RANGE (AFETR)

Note: This is SATELLITE DEBRIS
Your satellite tracking list
Your tracking list is empty




NASA's NSSDC Master Catalog

Two Line Element Set (TLE):
1 13502U 61015KT  23153.83592140  .00006279  00000-0  63512-2 0  9993
2 13502  66.4592 312.8380 0271603 184.6247 295.7414 13.62710513998693
Source of the keplerian elements: AFSPC